Regional Weather Roundup
Issued by NWS

Home | Current Version | Previous Version | Text Only | Print | Product List | Glossary Off
Versions: 1 2 3 4 5 6 7 8 9 10 11 12 13 14 15 16 17 18 19 20 21 22 23 24 25 26 27 28 29 30 31 32 33 34 35 36 37 38 39 40 41 42 43 44 45 46 47 48 49 50

000
ASUS43 KFSD 240702
RWRSD

WEATHER ROUNDUP FOR SOUTH DAKOTA
NATIONAL WEATHER SERVICE SIOUX FALLS SD
100 AM CST MON NOV 24 2014

NOTE: "FAIR" INDICATES FEW OR NO CLOUDS BELOW 12,000 FEET WITH NO
SIGNIFICANT WEATHER AND/OR OBSTRUCTIONS TO VISIBILITY.


SDZ001>005-009-010-012>017-240800-
NORTHWEST AND NORTH CENTRAL SOUTH DAKOTA

CITY           SKY/WX    TMP DP  RH WIND       PRES   REMARKS
BUFFALO          N/A     18  14  84 NW10      29.68R WCI   6
FAITH            N/A     20  15  81 NW17      29.71S WCI   5
MOBRIDGE       CLOUDY    23  15  71 NW26G36   29.63F WCI   6
$$

SDZ012>016-024>037-041>051-057-063-072>074-240800-
SOUTHWEST AND SOUTH CENTRAL SOUTH DAKOTA

CITY           SKY/WX    TMP DP  RH WIND       PRES   REMARKS
RAPID CTY ARPT PTCLDY    31  20  63 N15       29.72S WCI  20
PIERRE         CLOUDY    25  16  68 N18G35    29.68R WCI  11
CUSTER         PTCLDY    26  11  52 NW13G29   29.67S WCI  15
ELLSWORTH AFB  PTCLDY    32  20  61 N18G28    29.71F WCI  20
PHILIP         PTCLDY   N/A N/A N/A NW12      29.74R
PINE RIDGE     CLOUDY    31  23  72 NW10      29.74S WCI  22
WINNER         CLOUDY    27  18  69 NW28G35   29.66S WCI  11
$$

SDZ004>011-016>023-039-040-240800-
NORTHEAST SOUTH DAKOTA

CITY           SKY/WX    TMP DP  RH WIND       PRES   REMARKS
ABERDEEN       CLOUDY    19  10  68 NW20      29.64S WCI   3
WATERTOWN      CLOUDY    16  10  77 NW22G31   29.52F WCI  -2
SISSETON         N/A     18  12  77 N29       29.55S WCI  -1
$$

SDZ017-020-022-023-036>040-048>070-240800-
SOUTHEAST SOUTH DAKOTA

CITY           SKY/WX    TMP DP  RH WIND       PRES   REMARKS
SIOUX FALLS    CLOUDY    23  15  71 NW23G35   29.52S WCI   7
HURON          CLOUDY    21  12  68 NW28      29.62R WCI   3
MITCHELL       CLOUDY    25  17  72 NW25G32   29.62F WCI   9
YANKTON        CLOUDY   N/A N/A N/A NW26G35   29.57F
$$

ABBREVIATIONS USED IN REMARKS
   TC - TEMPERATURE IN CELSIUS
  WCI - WIND CHILL INDEX
   HX - HEAT INDEX
  VSB - VISIBILITY




USA.gov is the U.S. government's official web portal to all federal, state and local government web resources and services.